TimePST,TemperatureF,Dew PointF,Humidity,Sea Level PressureIn,VisibilityMPH,Wind Direction,Wind SpeedMPH,Gust SpeedMPH,PrecipitationIn,Events,Conditions,WindDirDegrees,DateUTC
12:07 AM,42.8,41.0,93,30.14,1.5,Calm,Calm,-,N/A,,Overcast,0,2013-02-26 08:07:00
12:09 AM,42.8,41.0,93,30.14,0.8,Calm,Calm,-,N/A,,Mist,0,2013-02-26 08:09:00
12:21 AM,39.2,39.2,100,30.14,0.2,Calm,Calm,-,N/A,Fog,Fog,0,2013-02-26 08:21:00
12:51 AM,39.9,39.9,100,30.12,0.5,SSE,3.5,-,N/A,Fog,Fog,160,2013-02-26 08:51:00
12:57 AM,41.0,39.2,93,30.11,0.2,Calm,Calm,-,N/A,Fog,Fog,0,2013-02-26 08:57:00
1:51 AM,37.9,37.9,100,30.11,0.2,Calm,Calm,-,N/A,Fog,Fog,0,2013-02-26 09:51:00
2:39 AM,37.4,35.6,93,30.08,0.5,Calm,Calm,-,N/A,Fog,Fog,0,2013-02-26 10:39:00
2:46 AM,37.4,37.4,100,30.08,0.2,Calm,Calm,-,N/A,Fog,Fog,0,2013-02-26 10:46:00
2:51 AM,37.9,37.0,97,30.10,0.5,Calm,Calm,-,N/A,Fog,Fog,0,2013-02-26 10:51:00
2:59 AM,37.4,37.4,100,30.08,0.8,West,3.5,-,N/A,,Clear,280,2013-02-26 10:59:00
3:04 AM,37.4,37.4,100,30.08,4.0,West,3.5,-,N/A,,Clear,280,2013-02-26 11:04:00
3:51 AM,35.1,34.0,96,30.09,10.0,NW,10.4,-,N/A,,Clear,310,2013-02-26 11:51:00
4:51 AM,43.0,36.0,76,30.09,10.0,NNW,10.4,-,N/A,,Clear,330,2013-02-26 12:51:00
5:51 AM,46.0,37.0,71,30.09,10.0,North,10.4,-,N/A,,Clear,350,2013-02-26 13:51:00
6:51 AM,51.1,37.9,61,30.09,10.0,North,12.7,19.6,N/A,,Clear,10,2013-02-26 14:51:00
7:51 AM,54.0,37.0,53,30.12,10.0,NNE,16.1,21.9,N/A,,Clear,20,2013-02-26 15:51:00
8:51 AM,57.9,33.1,39,30.11,10.0,NNE,20.7,27.6,N/A,,Clear,30,2013-02-26 16:51:00
9:51 AM,62.1,30.9,31,30.12,10.0,NE,19.6,28.8,N/A,,Clear,40,2013-02-26 17:51:00
10:51 AM,64.9,28.0,25,30.12,10.0,NNE,16.1,21.9,N/A,,Clear,30,2013-02-26 18:51:00
11:51 AM,69.1,28.0,22,30.09,10.0,NE,13.8,23.0,N/A,,Clear,40,2013-02-26 19:51:00
12:51 PM,71.1,26.1,19,30.07,10.0,North,15.0,21.9,N/A,,Partly Cloudy,10,2013-02-26 20:51:00
1:51 PM,71.1,21.9,16,30.05,10.0,NNE,17.3,26.5,N/A,,Partly Cloudy,30,2013-02-26 21:51:00
2:51 PM,73.0,21.9,15,30.05,10.0,NNE,13.8,23.0,N/A,,Partly Cloudy,30,2013-02-26 22:51:00
3:23 PM,64.4,42.8,45,30.05,10.0,WNW,17.3,-,0.01,,Clear,290,2013-02-26 23:23:00
3:51 PM,64.0,41.0,43,30.06,10.0,WNW,15.0,-,0.01,,Clear,290,2013-02-26 23:51:00
4:51 PM,61.0,37.0,41,30.07,10.0,West,12.7,-,N/A,,Clear,280,2013-02-27 00:51:00
5:51 PM,63.0,19.9,19,30.08,10.0,NNE,8.1,-,N/A,,Clear,20,2013-02-27 01:51:00
6:51 PM,52.0,34.0,50,30.12,10.0,West,5.8,-,0.01,,Clear,270,2013-02-27 02:51:00
7:51 PM,46.0,37.9,73,30.14,10.0,NW,5.8,-,0.01,,Clear,310,2013-02-27 03:51:00
8:51 PM,45.0,39.0,80,30.15,10.0,West,5.8,-,N/A,,Clear,280,2013-02-27 04:51:00
9:51 PM,45.0,33.1,63,30.17,10.0,West,5.8,-,N/A,,Clear,280,2013-02-27 05:51:00
10:51 PM,46.0,32.0,58,30.18,10.0,WNW,8.1,-,N/A,,Clear,300,2013-02-27 06:51:00
11:51 PM,48.9,26.1,41,30.18,10.0,Variable,3.5,-,N/A,,Clear,0,2013-02-27 07:51:00